ATLAS CENTAUR R/B, 3598

Orbit data source: Space-Track

ATLAS CENTAUR R/B, 3598 is space debris in LEO originally from a launch on Sat, 07 Dec 1968 UTC launched from the Air Force Eastern Test Range (AFETR). Debris objects in space refer to the collection of defunct objects orbiting the Earth. Examples of debris include non-operational satellites, rocket bodies, and fragments generated from explosions, collisions, or faulty payload assembly.

Loading next visibility...
Identifier
3598, 1968-110B
Orbit
LEO
Country
Flag of USUS
Related business
Manufacturer
GD/Convair
Mission
Spacecraft
Bus & Motor
CENTAUR D, Unknown motor
Mass
~1,700 kg wet, ~1,700 kg dry
Launch date (UTC)
1968-12-07 (57 years ago)
Launch vehicle
Unknown
Launch site
Air Force Eastern Test Range (AFETR)
Object type
Payload
Rocket body
Debris
Shape & HBR
Cyl, 4.5 m
Radar Cross Section
25.930 m², Large (>1 m²)

Expand to show TLE details & history
Last TLE update: 9 hours ago

TLE from 9 hours ago
0 ATLAS CENTAUR R/B
1 03598U 68110B   25260.26288053  .00000417  00000-0  93819-4 0  9996
2 03598  34.9916 218.7614 0047464 223.7205 135.9724 14.57239722984794
Epoch: 2025-09-17T06:18Z
TLE epoch observation values (Epoch: 2025-09-17T06:18:32.877Z)
Latitude
-0.00004°
Longitude
127.68302°
Altitude
725.272 km
Speed
7.482 km/s
True Right ascension
14h 35m 02s
True Declination
0° 00' 00"
Sunlit
Object was in daylight at epoch
Visualization orbit readout
Latitude
Unknown
Longitude
Unknown
Altitude
Unknown
Speed
Unknown
Apparent Right ascension
Unknown
Apparent Declination
Unknown
Sunlit
N/A
Visualization observer readout
Local Sidereal Time
08:02:53
Azimuth
Unknown
Elevation
Unknown
Doppler factor
Unknown
Orbital elements
Apogee altitude
738.879 km
Perigee altitude
671.638 km
Semi-major axis
7,083.395 km
Eccentricity
0.00475
Inclination
34.9916°
RAAN
218.7614°
Arg. of periapsis
223.7205°
True anomaly
136.3488°
Mean anomaly
135.9724°
Eccentric anomaly
136.16076°
Mean motion
3.64067 °/min
Orbital period
98.88 mins
BSTAR
0.000093819
Loading maneuver chart data...
Computing Atmospheric mass density...
Loading historical data...
Loading historical data...
Loading historical data...
Loading historical data...
Loading historical data...
Loading historical data...
Loading historical data...
Other satellites on launch #110 in the year 1968 (1968-12-07 UTC)

Documentation

Showing up to 5 results
|